Terminal Aerodrome Forecast
Issued by NWS

Current Version | Previous Version | Graphics & Text | Print | Product List | Glossary On
Versions: 1 2 3 4 5 6 7 8 9 10 11 12 13 14 15 16 17 18 19 20
000
FTUS41 KILN 260700 AAA
TAFLUK
TAF AMD
KLUK 260714Z 2607/2706 01012KT 1 1/2SM -SN OVC015
      TEMPO 2608/2609 3SM -SN
     FM260900 35012G20KT P6SM OVC018
     FM261200 35012KT P6SM OVC022
     FM261700 32010KT P6SM SCT022 BKN200
     FM262200 34004KT P6SM FEW020 SCT090=

USA.gov is the U.S. government's official web portal to all federal, state and local government web resources and services.